| time (UTC) | temp C | wind direction | speed KPH | gust KPH | rain 1hr cm | rain 24hr cm | rain mn cm | humidity % | barometer mb |
| 20260507090144 | 12 | 224 | 6.4 | 17.7 | 0.00 | 0.00 | 0.00 | 73 | 1020.3 |
| 20260507084529 | 12 | 203 | 8.0 | 17.7 | 0.00 | 0.00 | 0.00 | 74 | 1020.5 |
| 20260507081532 | 12 | 239 | 4.8 | 16.1 | 0.00 | 0.00 | 0.00 | 74 | 1020.8 |
| 20260507080030 | 12 | 227 | 6.4 | 17.7 | 0.00 | 0.00 | 0.00 | 76 | 1020.7 |
| 20260507074532 | 11 | 277 | 3.2 | 14.5 | 0.00 | 0.00 | 0.00 | 78 | 1020.8 |
| 20260507073031 | 11 | 262 | 1.6 | 8.0 | 0.00 | 0.00 | 0.00 | 77 | 1020.7 |
| 20260507071533 | 12 | 213 | 0.0 | 6.4 | 0.00 | 0.00 | 0.00 | 76 | 1020.6 |
| 20260507070105 | 12 | 281 | 1.6 | 8.0 | 0.00 | 0.00 | 0.00 | 76 | 1020.6 |
| 20260507064607 | 12 | 329 | 1.6 | 12.9 | 0.00 | 0.00 | 0.00 | 76 | 1020.7 |
| 20260507063031 | 12 | 277 | 3.2 | 9.7 | 0.00 | 0.00 | 0.00 | 76 | 1020.8 |
| 20260507061530 | 12 | 214 | 0.0 | 8.0 | 0.00 | 0.00 | 0.00 | 76 | 1020.8 |
| 20260507060030 | 12 | 245 | 1.6 | 8.0 | 0.00 | 0.00 | 0.00 | 77 | 1021.0 |
| 20260507054532 | 11 | 255 | 1.6 | 12.9 | 0.00 | 0.00 | 0.00 | 76 | 1021.0 |
| 20260507053107 | 12 | 242 | 3.2 | 8.0 | 0.00 | 0.00 | 0.00 | 73 | 1021.0 |
| 20260507051529 | 13 | 173 | 1.6 | 6.4 | 0.00 | 0.00 | 0.00 | 71 | 1021.1 |
| 20260507050035 | 13 | 274 | 3.2 | 17.7 | 0.00 | 0.00 | 0.00 | 70 | 1021.1 |
| 20260507044528 | 13 | 291 | 1.6 | 9.7 | 0.00 | 0.00 | 0.00 | 68 | 1021.0 |
| 20260507043030 | 14 | 315 | 3.2 | 17.7 | 0.00 | 0.00 | 0.00 | 67 | 1020.9 |
| 20260507041530 | 13 | 261 | 3.2 | 14.5 | 0.00 | 0.00 | 0.00 | 66 | 1020.7 |
| 20260507040037 | 13 | 259 | 3.2 | 9.7 | 0.00 | 0.00 | 0.00 | 65 | 1020.7 |
| 20260507034533 | 15 | 171 | 1.6 | 12.9 | 0.00 | 0.00 | 0.00 | 63 | 1020.7 |
| 20260507033030 | 15 | 238 | 3.2 | 14.5 | 0.00 | 0.00 | 0.00 | 61 | 1020.6 |
| 20260507031531 | 16 | 280 | 3.2 | 17.7 | 0.00 | 0.00 | 0.00 | 58 | 1020.6 |
| 20260507030032 | 17 | 225 | 3.2 | 11.3 | 0.00 | 0.00 | 0.00 | 57 | 1020.7 |
| 20260507024528 | 17 | 248 | 4.8 | 17.7 | 0.00 | 0.00 | 0.00 | 55 | 1020.6 |
| 20260507023031 | 18 | 259 | 6.4 | 16.1 | 0.00 | 0.00 | 0.00 | 53 | 1020.6 |
| 20260507014646 | 20 | 235 | 8.0 | 20.9 | 0.00 | 0.00 | 0.00 | 49 | 1020.2 |
| 20260507013031 | 21 | 241 | 8.0 | 25.7 | 0.00 | 0.00 | 0.00 | 47 | 1020.1 |
| 20260507010032 | 21 | 274 | 6.4 | 17.7 | 0.00 | 0.00 | 0.00 | 44 | 1020.1 |
| 20260507003032 | 23 | 254 | 8.0 | 17.7 | 0.00 | 0.00 | 0.00 | 41 | 1019.9 |
| 20260507001531 | 23 | 261 | 8.0 | 20.9 | 0.00 | 0.00 | 0.00 | 42 | 1019.8 |
| 20260507000031 | 22 | 265 | 6.4 | 19.3 | 0.00 | 0.00 | 0.00 | 42 | 1019.6 |
| 20260506230030 | 23 | 258 | 9.7 | 29.0 | 0.00 | 0.00 | 0.00 | 40 | 1019.4 |
| 20260506224529 | 23 | 264 | 12.9 | 30.6 | 0.00 | 0.00 | 0.00 | 40 | 1019.5 |
| 20260506223032 | 23 | 272 | 9.7 | 24.1 | 0.00 | 0.00 | 0.00 | 42 | 1019.6 |
| 20260506221606 | 22 | 293 | 12.9 | 30.6 | 0.00 | 0.00 | 0.00 | 43 | 1019.8 |
| 20260506220031 | 22 | 289 | 16.1 | 29.0 | 0.00 | 0.00 | 0.00 | 43 | 1019.7 |
| 20260506214532 | 23 | 289 | 16.1 | 33.8 | 0.00 | 0.00 | 0.00 | 44 | 1019.6 |
| 20260506213029 | 22 | 267 | 11.3 | 32.2 | 0.00 | 0.00 | 0.00 | 47 | 1019.6 |
| 20260506211529 | 22 | 256 | 9.7 | 27.4 | 0.00 | 0.00 | 0.00 | 47 | 1019.6 |
| 20260506210030 | 21 | 254 | 8.0 | 27.4 | 0.00 | 0.00 | 0.00 | 48 | 1019.7 |
| 20260506204531 | 21 | 274 | 9.7 | 29.0 | 0.00 | 0.00 | 0.00 | 48 | 1019.9 |
| 20260506203031 | 22 | 283 | 12.9 | 27.4 | 0.00 | 0.00 | 0.00 | 46 | 1019.8 |
| 20260506201540 | 22 | 282 | 11.3 | 27.4 | 0.00 | 0.00 | 0.00 | 45 | 1019.8 |
| 20260506200028 | 22 | 284 | 8.0 | 20.9 | 0.00 | 0.00 | 0.00 | 46 | 1019.8 |
| 20260506194532 | 22 | 278 | 14.5 | 29.0 | 0.00 | 0.00 | 0.00 | 46 | 1019.8 |
| 20260506193104 | 22 | 273 | 11.3 | 22.5 | 0.00 | 0.00 | 0.00 | 47 | 1019.9 |
| 20260506191531 | 22 | 283 | 12.9 | 30.6 | 0.00 | 0.00 | 0.00 | 47 | 1019.9 |
| 20260506190031 | 22 | 284 | 11.3 | 27.4 | 0.00 | 0.00 | 0.00 | 47 | 1019.9 |
| 20260506183147 | 21 | 290 | 6.4 | 16.1 | 0.00 | 0.00 | 0.00 | 50 | 1019.8 |
| 20260506181530 | 21 | 294 | 11.3 | 24.1 | 0.00 | 0.00 | 0.00 | 51 | 1020.0 |
| 20260506180031 | 21 | 299 | 12.9 | 32.2 | 0.00 | 0.00 | 0.00 | 50 | 1019.9 |
| 20260506174529 | 22 | 290 | 14.5 | 29.0 | 0.00 | 0.00 | 0.00 | 47 | 1019.8 |
| 20260506173029 | 22 | 267 | 8.0 | 20.9 | 0.00 | 0.00 | 0.00 | 49 | 1019.6 |
| 20260506171531 | 21 | 280 | 3.2 | 14.5 | 0.00 | 0.00 | 0.00 | 52 | 1019.6 |
| 20260506170030 | 20 | 299 | 8.0 | 16.1 | 0.00 | 0.00 | 0.00 | 54 | 1019.7 |
| 20260506164530 | 19 | 301 | 9.7 | 20.9 | 0.00 | 0.00 | 0.00 | 56 | 1019.7 |
| 20260506163031 | 18 | 279 | 11.3 | 27.4 | 0.00 | 0.00 | 0.00 | 58 | 1020.2 |
| 20260506161529 | 18 | 282 | 11.3 | 22.5 | 0.00 | 0.00 | 0.00 | 59 | 1020.3 |
| 20260506154530 | 19 | 268 | 6.4 | 22.5 | 0.00 | 0.00 | 0.00 | 61 | 1020.1 |
| 20260506153107 | 18 | 116 | 0.0 | 4.8 | 0.00 | 0.00 | 0.00 | 68 | 1020.0 |
| 20260506151530 | 17 | 145 | 1.6 | 4.8 | 0.00 | 0.00 | 0.00 | 76 | 1019.9 |
| 20260506150106 | 16 | 117 | 0.0 | 6.4 | 0.00 | 0.00 | 0.00 | 82 | 1020.2 |
| 20260506144530 | 15 | 131 | 0.0 | 3.2 | 0.00 | 0.00 | 0.00 | 87 | 1020.2 |
| 20260506141646 | 11 | 174 | 1.6 | 4.8 | 0.00 | 0.00 | 0.00 | 93 | 1020.1 |
| 20260506134534 | 8 | 221 | 1.6 | 4.8 | 0.00 | 0.00 | 0.00 | 95 | 1019.7 |
| 20260506133144 | 7 | 182 | 4.8 | 9.7 | 0.00 | 0.00 | 0.00 | 96 | 1019.5 |
| 20260506131531 | 6 | 218 | 6.4 | 17.7 | 0.00 | 0.00 | 0.00 | 96 | 1019.4 |
| 20260506130031 | 6 | 175 | 3.2 | 9.7 | 0.00 | 0.00 | 0.00 | 96 | 1019.3 |
| 20260506124533 | 6 | 144 | 3.2 | 8.0 | 0.00 | 0.00 | 0.00 | 96 | 1019.2 |
| 20260506123037 | 5 | 184 | 0.0 | 6.4 | 0.00 | 0.00 | 0.00 | 96 | 1019.0 |
| 20260506121539 | 5 | 159 | 1.6 | 8.0 | 0.00 | 0.00 | 0.00 | 96 | 1018.8 |
| 20260506120030 | 5 | 158 | 1.6 | 4.8 | 0.00 | 0.00 | 0.00 | 96 | 1018.7 |
| 20260506114603 | 5 | 145 | 1.6 | 6.4 | 0.00 | 0.00 | 0.00 | 95 | 1018.6 |
| 20260506113104 | 5 | 135 | 0.0 | 3.2 | 0.00 | 0.00 | 0.00 | 95 | 1018.4 |
| 20260506110030 | 6 | 138 | 1.6 | 4.8 | 0.00 | 0.00 | 0.00 | 95 | 1018.2 |
| 20260506103032 | 6 | 149 | 1.6 | 6.4 | 0.00 | 0.00 | 0.00 | 95 | 1017.9 |
| 20260506101529 | 6 | 157 | 1.6 | 4.8 | 0.00 | 0.00 | 0.00 | 95 | 1017.9 |
| 20260506100053 | 6 | 146 | 1.6 | 4.8 | 0.00 | 0.00 | 0.00 | 95 | 1017.8 |
| 20260506093145 | 6 | 157 | 1.6 | 3.2 | 0.00 | 0.00 | 0.00 | 94 | 1017.8 |
| 20260506091532 | 6 | 157 | 0.0 | 0.0 | 0.00 | 0.00 | 0.00 | 94 | 1017.7 |